Regional Weather Roundup
Issued by NWS

Home | Current Version | Previous Version | Text Only | Print | Product List | Glossary On
Versions: 1 2 3 4 5 6 7 8 9 10 11 12 13 14 15 16 17 18 19 20 21 22 23 24 25 26 27 28 29 30 31 32 33 34 35 36 37 38 39 40 41 42 43 44 45 46 47 48 49 50
000
ASUS43 KLOT 190710
RWRIL

ILLINOIS REGIONAL WEATHER ROUNDUP
NATIONAL WEATHER SERVICE CHICAGO/ROMEOVILLE IL
200 AM CDT FRI SEP 19 2014

NOTE: "FAIR" INDICATES FEW OR NO CLOUDS BELOW 12,000 FEET WITH NO
SIGNIFICANT WEATHER AND/OR OBSTRUCTIONS TO VISIBILITY.

* THESE STATIONS ARE NOT UNDER NWS QUALITY CONTROL. THEY ALSO MAY NOT
  REPORT WEATHER SUCH AS PRECIPITATION OR FOG.

ILZ001-002-007-009-015-016-024-190800-
NORTHWEST ILLINOIS

CITY           SKY/WX    TMP DP  RH WIND       PRES   REMARKS
MOLINE         CLEAR     53  49  86 E7        30.11F
STERLING*      CLEAR     48  45  87 E5        30.13F
SAVANNA*       CLEAR     54  51  87 SE6       30.12F
$$

ILZ003-004-008-010-011-017-018-190800-
NORTH CENTRAL ILLINOIS

CITY           SKY/WX    TMP DP  RH WIND       PRES   REMARKS
ROCKFORD       FOG       53  52  96 SE9       30.17F VSB 1
FREEPORT*      CLEAR     50  48  95 E7        30.16F FOG
ROCHELLE*      FOG       54  53  97 E8        30.15F VSB 1
DE KALB*       FOG       55  54  99 E7        30.17S VSB 3/4
PERU*          CLEAR     52  51  95 E5        30.15R FOG
$$

ILZ005-006-012>014-019>023-190800-
NORTHEAST ILLINOIS

CITY           SKY/WX    TMP DP  RH WIND       PRES   REMARKS
CHICAGO-OHARE  CLEAR     56  54  93 N3        30.16S
CHICAGO-MIDWAY CLEAR     61  58  90 CALM      30.16R
AURORA         FOG       52  50  93 CALM      30.16S VSB 3/4
LANSING*       CLEAR     55  52  91 SE6       30.16R
JOLIET*        CLEAR     57  54  91 CALM      30.16S FOG
WAUKEGAN       CLEAR     54  54 100 CALM      30.16F FOG
DUPAGE AIRPORT PTCLDY    56  54  93 E6        30.15S FOG
KANKAKEE*      CLEAR     52  51  99 NE3       30.15S FOG
WHEELING       CLEAR     53  51  93 CALM      30.18S
MORRIS*        FOG       51  51 100 CALM      30.15R VSB 1/4
ROMEOVILLE*    CLEAR     56  56 100 E6        30.15S FOG
NORTHERLY ISL    N/A     61  55  81 SE5         N/A
$$

LMZ740>746-190800-
SOUTHERN LAKE MICHIGAN

STATION/POSITION SKY/WX   TEMP    WIND        PRES    VSBY  WAVE
                          AIR SEA DIR/SP/G                  HT/PER
                          (F)     (DEG/KT/KT) (MB)    (MI)  (FT/S)
SOUTHERN BUOY              61 62  130/ 14/ 16 1022.0R         2/ 3
WAUKEGAN HARBOR            62      80/  5/  5   N/A
HARRISON CRIB              63     130/ 12/ 14   N/A
BURNHAM HARBOR             61     120/  5/  9   N/A
CALUMET HARBOR             62     110/  6/  9 1019.9F
MICHIGAN CITY              58     110/ 10/ 14   N/A
MICHIGAN CITY 6N           61 65  130/ 12/ 17   N/A           2/ 2
ST. JOSEPH                 58 66  120/ 14/ 17   N/A           2/ 2
$$

ILZ025>027-034>036-040-047-049-050-058-095>099-190800-
WEST-CENTRAL ILLINOIS

CITY           SKY/WX    TMP DP  RH WIND       PRES   REMARKS
QUINCY         CLEAR     57  50  77 E8        30.09S
GALESBURG*     CLEAR     53  49  87 E5        30.11S
MACOMB*        CLEAR     47  47  99 NE5       30.13R
JACKSONVILLE*  CLEAR     52  49  90 E5        30.11S
PITTSFIELD*    CLEAR     53  50  91 CALM      30.11S
$$

ILZ028>032-037-038-041>044-048-051>054-059>061-190800-
CENTRAL ILLINOIS

CITY           SKY/WX    TMP DP  RH WIND       PRES   REMARKS
PONTIAC        CLEAR     54  54 100 CALM      30.14S FOG
DECATUR        CLEAR     50  46  86 CALM      30.13R
PEORIA         CLEAR     57  52  83 E8        30.13R
LACON*         CLEAR     54  52  94 E5        30.13S FOG
LINCOLN*       CLEAR     50  46  87 CALM      30.11S
SPRINGFIELD    CLEAR     53  48  83 E3        30.11S
TAYLORVILLE    CLEAR     52  48  87 E6        30.11S
$$

ILZ033-039-045-046-055>057-062-063-190800-
EAST-CENTRAL ILLINOIS

CITY           SKY/WX    TMP DP  RH WIND       PRES   REMARKS
CHAMPAIGN      CLEAR     52  48  86 E7        30.14R
DANVILLE*      CLEAR     52  48  87 E3        30.13R
RANTOUL*       CLEAR     54  48  81 CALM      30.14F
MATTOON        CLEAR     53  49  86 CALM      30.12R
PARIS*         CLEAR     49  48  97 CALM      30.15R
$$

ILZ079-100>102-190800-
SOUTHWEST ILLINOIS

CITY           SKY/WX    TMP DP  RH WIND       PRES   REMARKS
ALTON          CLEAR     54  52  95 CALM      30.10R
BELLEVILLE     CLEAR     55  55 100 CALM      30.08S
CAHOKIA*       CLEAR     54  52  93 CALM      30.09R FOG
SPARTA*        CLEAR     53  52  95 E3        30.09R
$$

ILZ064>066-069>071-074>076-080>082-084>086-088>090-092>094-190800-
SOUTH-CENTRAL ILLINOIS

CITY           SKY/WX    TMP DP  RH WIND       PRES   REMARKS
CARBONDALE     FOG       52  51  97 CALM      30.07S VSB 1
CAIRO*         CLEAR     57  53  85 CALM      30.06S
EFFINGHAM*     CLEAR     51  49  92 CALM      30.11S
MARION         CLEAR     54  54 100 CALM      30.08S
MT. VERNON     CLEAR     55  50  82 N6        30.10S
CENTRALIA*     CLEAR     51  49  93 CALM      30.09S FOG
SALEM*         CLEAR     59  55  87 CALM      30.10S
METROPOLIS*    CLEAR     54  54 100 CALM      30.06S
$$

ILZ067-068-072-073-078-083-087-091-190800-
SOUTHEAST ILLINOIS

CITY           SKY/WX    TMP DP  RH WIND       PRES   REMARKS
LAWRENCEVILLE  CLEAR     53  51  93 NE5       30.11S
FLORA*         CLEAR     53  51  94 CALM      30.11S
FAIRFIELD*     CLEAR    N/A N/A N/A N3        30.09S
HARRISBURG*    CLEAR     54  54  99 CALM      30.09R
ROBINSON*      FOG       49  49  99 CALM      30.13S VSB 1/2
CARMI*         CLEAR     53  52  98 CALM      30.08R
$$

ABBREVIATIONS USED IN REMARKS
   TC - TEMPERATURE IN CELSIUS
  WCI - WIND CHILL INDEX
   HX - HEAT INDEX
  VSB - VISIBILITY
$$



USA.gov is the U.S. government's official web portal to all federal, state and local government web resources and services.